Denver Centennial, CO

10:20 PM MDT on August 23, 2017 (GMT -0600)
Centennial

Weather History for KAPA - March, 2013

Change the Weather History Date:

Thursday, March 21, 2013

  Actual Average Record
Temperature  
Mean Temperature 42 °F -  
Max Temperature 55 °F 53 °F 73 °F (1999)
Min Temperature 28 °F 28 °F 9 °F (2006)
Degree Days  
Heating Degree Days 23    
Month to date heating degree days 539  
Moisture  
Dew Point 24 °F    
Average Humidity 51    
Maximum Humidity 75    
Minimum Humidity 27    
Precipitation  
Precipitation T in - - ()
Month to date precipitation 0.56  
Year to date precipitation 1.25  
Sea Level Pressure  
Sea Level Pressure 29.63 in    
Wind  
Wind Speed 8 mph (SE)    
Max Wind Speed 29 mph    
Max Gust Speed 38 mph    
Visibility 10 miles    
Events Rain    
Averages and records for this station are not official NWS values.
T = Trace of Precipitation, MM = Missing Value Source: NWS Daily Summary

Daily Weather History Graph

Daily Weather History Graph

Search for Another Location

Airport or City:

Trip Planner

Search our weather history database for the weather conditions in past years. The results will help you decide how hot, cold, wet, or windy it might be!

Date:

Astronomy

Mar. 21, 2013 Rise Set
Actual Time 7:00 AM MDT 7:12 PM MDT
Civil Twilight 6:33 AM MDT 7:39 PM MDT
Nautical Twilight 6:02 AM MDT 8:11 PM MDT
Astronomical Twilight 5:30 AM MDT 8:43 PM MDT
Moon 1:46 PM MDT (3/21) 3:23 AM MDT (3/21)
Length of Visible Light 13h 05m
Length of Day
12h 12m
Waxing Gibbous, 69% of the Moon is Illuminated
Mar 21
Waxing Gibbous
Mar 27
Full
Apr 2
Last Quarter
Apr 10
New
Apr 18
First Quarter

Hourly Weather History & Observations

Time (MDT) Temp. Windchill Dew Point Humidity Pressure Visibility Wind Dir Wind Speed Gust Speed Precip Events Conditions
12:53 AM 35.1 °F 29.3 °F 21.0 °F 57% 29.69 in 10.0 mi SSW 6.9 mph - N/A   Scattered Clouds
1:53 AM 34.0 °F 28.8 °F 21.9 °F 61% 29.68 in 10.0 mi ESE 5.8 mph - N/A   Clear
2:53 AM 35.1 °F 31.0 °F 21.9 °F 59% 29.66 in 10.0 mi SSE 4.6 mph - N/A   Clear
3:53 AM 37.0 °F 31.6 °F 21.9 °F 54% 29.64 in 10.0 mi Variable 6.9 mph - N/A   Partly Cloudy
4:53 AM 36.0 °F 32.1 °F 21.0 °F 55% 29.63 in 10.0 mi South 4.6 mph - N/A   Partly Cloudy
5:53 AM 33.1 °F 26.1 °F 21.0 °F 61% 29.62 in 10.0 mi SSW 8.1 mph - N/A   Scattered Clouds
6:53 AM 35.1 °F 31.0 °F 23.0 °F 61% 29.61 in 10.0 mi South 4.6 mph - N/A   Mostly Cloudy
7:53 AM 39.0 °F 33.4 °F 24.1 °F 55% 29.59 in 10.0 mi SSE 8.1 mph - N/A   Overcast
8:53 AM 41.0 °F 36.4 °F 24.1 °F 51% 29.60 in 10.0 mi SSE 6.9 mph - N/A   Overcast
9:53 AM 45.0 °F 40.6 °F 25.0 °F 46% 29.58 in 10.0 mi ESE 8.1 mph - N/A   Overcast
10:53 AM 48.9 °F - 26.1 °F 41% 29.53 in 10.0 mi SSE 17.3 mph - N/A   Mostly Cloudy
11:53 AM 53.1 °F - 27.0 °F 37% 29.50 in 10.0 mi SSE 10.4 mph - N/A   Mostly Cloudy
12:53 PM 55.0 °F - 23.0 °F 29% 29.47 in 10.0 mi Calm Calm - N/A   Mostly Cloudy
1:53 PM 53.1 °F - 21.9 °F 30% 29.48 in 10.0 mi North 8.1 mph - N/A   Mostly Cloudy
2:32 PM 48.2 °F - 28.4 °F 46% 29.57 in 10.0 mi NW 17.3 mph 38.0 mph 0.00 in Rain Light Rain
2:53 PM 51.1 °F - 25.0 °F 36% 29.55 in 10.0 mi NNW 25.3 mph 35.7 mph 0.00 in   Overcast
3:53 PM 45.0 °F 37.4 °F 32.0 °F 60% 29.58 in 10.0 mi North 18.4 mph 25.3 mph N/A   Mostly Cloudy
4:53 PM 48.9 °F - 28.9 °F 46% 29.58 in 10.0 mi North 17.3 mph 23.0 mph N/A   Mostly Cloudy
5:53 PM 46.9 °F - 30.0 °F 52% 29.64 in 10.0 mi North 8.1 mph - N/A   Scattered Clouds
6:53 PM 42.1 °F 37.1 °F 32.0 °F 67% 29.71 in 10.0 mi NNE 8.1 mph - N/A   Scattered Clouds
7:53 PM 39.9 °F - 28.9 °F 65% 29.73 in 10.0 mi Calm Calm - N/A   Scattered Clouds
8:53 PM 39.0 °F 32.8 °F 12.9 °F 34% 29.76 in 10.0 mi NW 9.2 mph - N/A   Partly Cloudy
9:53 PM 37.0 °F 31.6 °F 12.9 °F 37% 29.78 in 10.0 mi WNW 6.9 mph - N/A   Partly Cloudy
10:53 PM 34.0 °F - 12.9 °F 42% 29.80 in 10.0 mi Calm Calm - N/A   Partly Cloudy
11:53 PM 28.0 °F 19.3 °F 21.0 °F 75% 29.82 in 10.0 mi SE 9.2 mph - N/A   Partly Cloudy